Regional Weather Roundup
Issued by NWS

Home | Current Version | Previous Version | Graphics & Text | Print | Product List | Glossary On
Versions: 1 2 3 4 5 6 7 8 9 10 11 12 13 14 15 16 17 18 19 20 21 22 23 24 25 26 27
000
ASUS45 KCYS 101410
RWRWY

WYOMING REGIONAL WEATHER ROUNDUP
NATIONAL WEATHER SERVICE CHEYENNE WY
700 AM MST SUN DEC 10 2017

NOTE:  "FAIR" INDICATES FEW OR NO CLOUDS BELOW 12,000 FEET
WITH NO SIGNIFICANT WEATHER AND/OR OBSTRUCTIONS TO VISIBILITY.

WYZ001-101500-
YELLOWSTONE NATIONAL PARK

CITY           SKY/WX    TMP DP  RH WIND       PRES   REMARKS
LK YELLOWSTONE   N/A      0  -3  87 NW3       30.60S
W YELLOWSTONE  NOT AVBL

$$
WYZ002>013-054>058-071-098>099-101500-
NORTHERN WYOMING

CITY           SKY/WX    TMP DP  RH WIND       PRES   REMARKS
JACKSON        MOCLDY     3   0  85 N6        30.64R WCI  -8
CODY           FAIR      25  13  60 VRB3      30.38S
GREYBULL       FAIR       9   5  84 CALM      30.44R
WORLAND        FAIR      13  10  88 S6        30.42F WCI   4
SHERIDAN       FAIR      24  12  60 S3        30.29F
BUFFALO        FAIR      38   0  20 W10       30.32F WCI  31
GILLETTE       FAIR      33  11  39 W10       30.30F WCI  25
HULETT         FAIR      34  10  37 SW15      30.30S WCI  24
NEWCASTLE      FAIR      30   9  40 N9        30.32S WCI  22

$$
WYZ014>020-022>026-101>103-101500-
CENTRAL WYOMING

CITY           SKY/WX    TMP DP  RH WIND       PRES   REMARKS
BIG PINEY      FAIR      24   3  40 N10       30.51R WCI  14
PINEDALE       FAIR      18   1  49 N5        30.51R WCI  11
DUBOIS         FAIR      37  -8  14 NW15G22   30.46S WCI  28
LANDER         FAIR      17   9  70 CALM      30.43R
RIVERTON       FAIR      15  11  83 N5        30.45R WCI   8
CASPER         FAIR      30  13  49 SW23      30.41R WCI  17
DOUGLAS        FAIR      21  13  71 NW6       30.39R WCI  13

$$
WYZ021-027>030-104>119-101500-
SOUTHERN WYOMING

CITY           SKY/WX    TMP DP  RH WIND       PRES   REMARKS
EVANSTON       FAIR      23   2  40 S3        30.57S
FORT BRIDGER   FAIR      32  -2  23 W15       30.56S WCI  22
ROCK SPRINGS   FAIR      24   3  40 W9        30.52R WCI  14
DIXON          FAIR       4  -1  79 CALM      30.59S
RAWLINS        FAIR      20   7  57 S9        30.50F WCI   9
SARATOGA       FAIR      19   7  58 S15       30.51F WCI   5
LARAMIE        FAIR      15   2  56 W9        30.44S WCI   3
CHEYENNE       FAIR      33   1  25 CALM      30.39S
TORRINGTON     FAIR      25  12  58 NW12      30.36S WCI  14
PINE BLUFFS    FAIR      25   1  36 S5        30.39S WCI  19

$$




USA.gov is the U.S. government's official web portal to all federal, state and local government web resources and services.